#timestamp,LO_Frequency,Hit,StdDev 
1509134415.7,286046999.0,P
1509134435.6,286047005.4,N
1509134455.4,286047007.3,N
1509134475.2,286047006.7,N
1509134495.1,286047005.6,N
1509134496.0,286047005.6,N
1509134515.8,286047010.8,N
1509134535.7,286047005.5,N
1509134555.5,286047005.4,N
1509134575.3,286047008.2,N
1509134595.2,286047010.3,N
1509134615.9,286047011.8,N
1509134635.7,286047016.7,Y
1509134655.6,286047008.3,P
1509134675.4,286047009.0,P
1509134695.2,286047007.6,P
1509134715.1,286047005.1,Y
1509134716.0,286047005.1,P
1509134735.8,286046999.5,N
1509134755.7,286046998.6,N
1509134775.5,286046996.9,N
1509134795.3,286046997.0,N
1509134815.2,286046994.9,N
1509134835.9,286046997.4,N
1509134855.7,286046997.6,N
1509134875.6,286046997.7,N
1509134895.4,286046995.3,N
1509134915.2,286046999.5,N
1509134935.1,286046995.1,N
1509134936.0,286046995.1,N
1509134955.8,286046996.7,N
1509134975.6,286046996.6,N
1509134995.5,286046994.6,N
1509135015.3,286046992.9,N
1509135035.1,286046992.2,N
1509135055.9,286046992.8,N
1509135075.7,286046988.9,Y
1509135095.5,286046994.6,P
1509135115.4,286046993.5,P
1509135135.2,286046994.2,P
1509135155.0,286046993.6,Y
1509135156.0,286046993.6,P
1509135175.8,286046998.3,N
1509135195.6,286046996.7,N
1509135215.5,286046995.4,N
1509135235.3,286046999.4,N
1509135255.1,286046998.9,N
1509135275.9,286046997.3,N
1509135295.7,286046998.9,N
1509135315.5,286047002.7,N
1509135335.4,286047000.8,N
1509135355.2,286046998.0,N
1509135375.0,286046996.2,N
1509135375.9,286046996.2,N
1509135395.8,286046993.0,Y
1509135415.6,286046989.0,P
1509135435.4,286046989.6,N
1509135455.3,286046991.6,N
1509135475.1,286046987.4,Y
1509135495.9,286046993.8,P
1509135515.7,286046991.8,P
1509135535.5,286046992.9,P
1509135555.4,286046992.8,Y
1509135575.2,286046999.5,P
1509135595.0,286046997.4,N
1509135595.9,286046997.4,N
1509135615.8,286046996.8,N
1509135635.6,286046998.3,N
1509135655.4,286047002.5,N
1509135675.3,286047001.0,N
1509135695.1,286047000.7,N
1509135715.8,286047002.0,N
1509135735.7,286047005.7,N
1509135755.5,286047001.9,N
1509135775.3,286046997.1,N
1509135795.2,286046998.0,N
1509135815.0,286046995.0,N
1509135815.9,286046995.0,N
1509135835.7,286046996.4,N
1509135855.6,286046995.3,N
1509135875.4,286046996.3,N
1509135895.2,286046995.9,N
1509135915.1,286047001.1,N
1509135916.0,286047001.1,N
1509135935.8,286046998.6,N
1509135955.6,286046995.4,N
1509135975.5,286046994.9,N
1509135995.3,286046992.4,N
1509136015.1,286046994.1,N
1509136035.9,286046993.9,N
1509136055.7,286046993.8,N
1509136075.6,286046990.2,Y
1509136095.4,286046991.7,P
1509136115.2,286046995.7,N
1509136135.1,286046994.9,N
1509136136.0,286046994.9,N
1509136155.8,286046999.5,N
1509136175.6,286047000.7,N
1509136195.5,286047000.7,N
1509136215.3,286047004.7,N
1509136235.1,286047012.3,Y
1509136255.9,286047016.6,P
1509136275.7,286047017.5,N
1509136295.5,286047023.1,N
1509136315.4,286047023.8,N
1509136335.2,286047023.9,N
1509136355.0,286047027.0,N
1509136356.0,286047027.0,N
1509136375.8,286047030.6,Y
1509136395.6,286047013.1,P
1509136415.5,286047015.3,P
1509136435.3,286047016.9,P
1509136455.1,286047016.4,Y
1509136475.9,286047000.7,P
1509136495.7,286047002.6,N
1509136515.5,286047001.3,N
1509136535.4,286047003.5,N
1509136555.2,286047001.8,N
1509136575.0,286047005.1,N
1509136575.9,286047005.1,N
1509136595.8,286047007.6,N
1509136615.6,286047003.1,N
1509136635.4,286047002.9,N
1509136655.3,286047001.5,N
1509136675.1,286046998.3,N
1509136695.9,286046998.6,N
1509136715.7,286047000.3,N
1509136735.5,286047004.2,N
1509136755.4,286047001.3,N
1509136775.2,286047004.2,N
1509136795.0,286047001.8,N
1509136795.9,286047001.8,N
1509136815.8,286047003.3,N
1509136835.6,286047003.3,N
1509136855.4,286047001.4,N
1509136875.3,286047001.9,N
1509136895.1,286047001.5,N
1509136896.0,286047001.5,N
1509136915.8,286047000.5,N
1509136935.7,286047000.7,N
1509136955.5,286046999.3,N
1509136975.3,286046999.6,N
1509136995.2,286046998.0,N
1509137015.9,286046993.4,Y
1509137035.7,286046993.0,P
1509137055.6,286046992.3,N
1509137075.4,286046994.6,N
1509137095.2,286046992.7,N
1509137115.1,286046991.9,N
1509137116.0,286046991.9,N
1509137135.8,286046994.6,N
1509137155.6,286046997.8,N
1509137175.5,286046994.9,N
1509137195.3,286046996.3,N
1509137215.1,286046994.2,N
1509137235.9,286046993.1,N
1509137255.7,286046986.9,Y
1509137275.6,286046993.4,P
1509137295.4,286046996.1,P
1509137315.2,286046994.9,P
1509137335.1,286046997.0,Y
1509137336.0,286046997.0,P
1509137355.8,286047003.1,N
1509137375.6,286047000.0,N
1509137395.5,286046998.9,N
1509137415.3,286046999.3,N
1509137435.1,286046996.8,N
1509137455.9,286046997.5,N
1509137475.7,286046997.3,N
1509137495.6,286046999.3,N
1509137515.4,286047000.3,N
1509137535.2,286047002.6,N
1509137555.1,286047004.9,N
1509137556.0,286047004.9,N
1509137575.8,286047009.1,Y
1509137595.6,286047009.3,P
1509137615.5,286047013.2,N
1509137635.3,286047014.0,N
1509137655.1,286047011.1,N
1509137675.9,286047011.5,N
1509137695.7,286047010.9,N
1509137715.5,286047013.0,N
1509137735.4,286047014.9,Y
1509137755.2,286047006.7,P
1509137775.0,286047007.0,P
1509137775.9,286047007.0,P
1509137795.8,286047009.2,Y
1509137815.6,286047002.5,P
1509137835.5,286047000.5,N
1509137855.3,286046998.1,N
1509137875.1,286047001.0,N
1509137895.9,286046999.9,N
1509137915.7,286047001.6,N
1509137935.5,286047001.6,N
1509137955.4,286047001.0,N
1509137975.2,286046995.3,N
1509137995.0,286046993.3,N
1509137995.9,286046993.3,N
